This demonstration page uses our WeatherBlox Daily Observations layout. Learn more.

Left ArrowRight Arrow

44.31136, -96.79839

Hourly Observations for June 22, 2019

Temp ( °F °C ) Dew Point ( °F °C ) Humidity (%) Winds ( mph kmh ) Pressure ( in mb ) Visibility ( mi km ) Precip ( " mm )
12:56 am 00:56 Cloudy 63 17.2 60 15.6 90 90 SSE 10 17 29.94 1014 10 16 0.00 0.00
1:56 am 01:56 Cloudy 62 16.7 59 15 90 90 SE 10 17 29.94 1014 10 16 0.00 0.00
2:56 am 02:56 Cloudy 62 16.7 59 15 90 90 SE 8 13 29.95 1014 10 16 0.00 0.00
3:24 am 03:24 Cloudy 63 17 61 16 94 94 SE 9 15 29.89 1012 10 16 0.00 0.00
3:56 am 03:56 Cloudy 61 16.1 59 15 93 93 SSE 12 19 29.93 1014 9 14 0.00 0.00
4:56 am 04:56 Cloudy 61 16.1 59 15 93 93 SSE 9 15 29.94 1014 9 14 0.00 0.00
5:56 am 05:56 Cloudy 61 16.1 60 15.6 97 97 SE 6 9 29.96 1015 7 11 0.00 0.00
6:28 am 06:28 Cloudy with Mist and Fog 61 16 61 16 100 100 SE 9 15 29.93 1014 3 5 0.00 0.00
6:56 am 06:56 Cloudy with Mist and Fog 60 15.6 60 15.6 100 100 SE 8 13 29.99 1016 4 6 0.00 0.00
7:56 am 07:56 Cloudy with Mist and Fog 60 15.6 59 15 96 96 SE 8 13 30.00 1016 5 8 0.00 0.00
8:56 am 08:56 Cloudy with Mist and Fog 60 15.6 59 15 96 96 ESE 10 17 30.00 1016 5 8 0.00 0.00
9:56 am 09:56 Cloudy 62 16.7 60 15.6 93 93 ESE 6 9 29.98 1015 7 11 0.00 0.00
10:56 am 10:56 Cloudy 63 17.2 60 15.6 90 90 ESE 5 7 29.98 1015 8 13 0.00 0.00
11:19 am 11:19 Cloudy 64 18 61 16 88 88 Calm 29.92 1013 10 16 0.00 0.00
11:56 am 11:56 Cloudy 64 17.8 60 15.6 87 87 SE 7 11 29.98 1015 10 16 0.00 0.00
12:29 pm 12:29 Cloudy 64 18 61 16 88 88 ESE 6 9 29.92 1013 10 16 0.00 0.00
12:56 pm 12:56 Cloudy 66 18.9 60 15.6 81 81 ESE 3 6 29.98 1015 10 16 0.00 0.00
1:56 pm 13:56 Cloudy with Light Rain 63 17.2 61 16.1 93 93 VRB 3 6 30.01 1016 3 4 0.00 0.03
2:14 pm 14:14 Cloudy with Light Rain 63 17 63 17 100 100 W 6 9 29.95 1014 5 8 0.00 0.03
2:26 pm 14:26 Cloudy with Light Rain 63 17 63 17 100 100 NNW 5 7 29.94 1014 6 10 0.00 0.03
2:56 pm 14:56 Mostly Cloudy 64 17.8 62 16.7 93 93 VRB 3 6 29.99 1016 8 13 0.00 0.03
3:27 pm 15:27 Mostly Cloudy 66 19 63 17 88 88 N 7 11 29.90 1012 10 16 0.00 0.00
3:39 pm 15:39 Mostly Cloudy 66 19 63 17 88 88 N 8 13 29.90 1012 10 16 0.00 0.00
3:49 pm 15:49 Mostly Cloudy with Haze 66 19 63 17 88 88 NE 10 17 29.89 1012 6 10 0.00 0.00
3:56 pm 15:56 Mostly Cloudy 67 19.4 62 16.7 84 84 ENE 10 17 29.96 1014 10 16 0.00 0.00
4:11 pm 16:11 Cloudy 68 20 63 17 83 83 ENE 8 13 29.89 1012 10 16 0.00 0.00
4:49 pm 16:49 Partly Cloudy 70 21 61 16 73 73 E 8 13 29.87 1012 10 16 0.00 0.00
4:56 pm 16:56 Partly Cloudy 69 20.6 62 16.7 78 78 E 7 11 29.97 1015 10 16 0.00 0.00
5:15 pm 17:15 Cloudy with Haze 70 21 61 16 73 73 Calm 29.90 1013 5 8 0.00 0.00
5:29 pm 17:29 Cloudy 70 21 63 17 78 78 SSW 3 6 29.90 1013 10 16 0.00 0.00
5:37 pm 17:37 Cloudy with Light Rain 70 21 63 17 78 78 WSW 3 6 29.90 1013 10 16 0.00 0.03
5:47 pm 17:47 Cloudy 68 20 63 17 83 83 WNW 5 7 29.91 1013 10 16 0.00 0.03
5:56 pm 17:56 Cloudy 68 20 63 17.2 84 84 NNW 3 6 29.98 1015 10 16 0.00 0.03
6:22 pm 18:22 Cloudy 66 19 63 17 88 88 NW 7 11 29.91 1013 10 16 0.00 0.00
6:56 pm 18:56 Cloudy with Rain 65 18.3 63 17.2 93 93 N 8 13 29.95 1014 6 10 0.00 0.03
7:23 pm 19:23 Mostly Cloudy with Light Rain 64 18 63 17 94 94 N 3 6 29.90 1013 3 4 0.00 0.00
7:56 pm 19:56 Cloudy with Light Rain 64 17.8 64 17.8 100 100 NE 7 11 29.94 1014 2 3 0.00 0.00
8:21 pm 20:21 Cloudy with Light Rain 64 18 63 17 94 94 ENE 6 9 29.86 1011 5 8 0.00 0.00
8:56 pm 20:56 Cloudy with Light Rain 64 17.8 62 16.7 93 93 NW 5 7 29.94 1014 10 16 0.00 0.00
9:56 pm 21:56 Mostly Cloudy 63 17.2 63 17.2 100 100 Calm 29.95 1014 9 14 0.00 0.00
10:56 pm 22:56 Mostly Cloudy with Light Rain 62 16.7 61 16.1 96 96 NW 5 7 29.96 1015 7 11 0.00 0.00
11:56 pm 23:56 Mostly Cloudy with Mist and Fog 61 16.1 61 16.1 100 100 N 3 6 29.95 1014 6 10 0.00 0.00

Powered by AerisWeather